Terminal Aerodrome Forecast
Issued by NWS

Home | Current Version | Previous Version | Text Only | Print | Product List | Glossary On
Versions: 1 2 3 4 5 6 7 8 9 10 11 12 13 14 15 16 17
000
FTUS45 KVEF 012200 AAC
TAFDAG
TAF AMD
KDAG 012247Z 0123/0218 14015G30KT P6SM -TSRA FEW110CB SCT140
     FM020000 24012KT P6SM SCT140
     FM020900 27008KT P6SM BKN140=

USA.gov is the U.S. government's official web portal to all federal, state and local government web resources and services.